Miscellaneous Local Product
Issued by NWS Hastings, NE

Home | Current Version | Previous Version | Graphics & Text | Print | Product List | Glossary On
Versions: 1 2 3 4 5 6 7 8 9 10 11 12 13 14 15 16 17 18 19 20 21 22 23 24 25 26 27 28 29 30 31 32 33 34 35 36 37 38 39 40 41 42 43 44 45 46 47 48 49 50
047
AXUS43 KGID 180902
MISGRI

GID CWA HOURLY WEATHER ROUNDUP
NATIONAL WEATHER SERVICE HASTINGS NE
400 AM CDT WED APR 18 2018

NOTE: "FAIR" INDICATES FEW OR NO CLOUDS BELOW 12,000 FEET WITH NO
SIGNIFICANT WEATHER AND/OR OBSTRUCTIONS TO VISIBILITY.

...SOUTH CENTRAL NEBRASKA...

CITY           SKY/WX    TMP DP  RH WIND       PRES   REMARKS
GRAND ISLAND   CLOUDY    34  33  96 NW13      29.82R WCI  25
KEARNEY        CLOUDY    37  35  92 NW14      29.85R WCI  28
HASTINGS       CLOUDY    35  34  96 NW16      29.83R WCI  25
ORD            FLURRIES  34  33  96 NW16      29.83R WCI  24
YORK             N/A     32  32 100 N9G21     29.77R WCI  24
AURORA         CLOUDY    33  32  98 NW20      29.80R WCI  21
LEXINGTON      CLOUDY    38  36  90 NW15      29.88R WCI  30
HOLDREGE       CLOUDY    37  37  97 NW17G23   29.86R WCI  28
HEBRON         MOCLDY    36  33  87 N15       29.77R WCI  27

...NEBRASKA PANHANDLE...

CITY           SKY/WX    TMP DP  RH WIND       PRES   REMARKS
CHADRON        CLOUDY    39  33  79 NW29G38   30.02R WCI  27
ALLIANCE       CLOUDY    35  32  88 NW29G39   29.99R WCI  22
SCOTTSBLUFF    PTCLDY    33  30  88 W13       30.05R WCI  24
SIDNEY         PTCLDY    32  27  81 NW13      30.03R WCI  22

...WESTERN AND NORTH CENTRAL NEBRASKA...

CITY           SKY/WX    TMP DP  RH WIND       PRES   REMARKS
VALENTINE      LGT SNOW  32  30  92 NW14      29.93R FOG     WCI  22
AINSWORTH      LGT SNOW  30  30 100 N15       29.90R WCI  19
ONEILL         MIX PCPN  31  30  96 N9        29.86S WCI  23
BROKEN BOW     FLURRIES  34  33  96 NW17G24   29.85R WCI  23
IMPERIAL       CLEAR     37  30  75 W23G35    29.98R WCI  26
NORTH PLATTE   CLOUDY    39  35  86 NW18G29   29.92R WCI  30
MCCOOK         PTCLDY    39  34  82 NW17G28   29.94R WCI  30

...EASTERN NEBRASKA...

CITY           SKY/WX    TMP DP  RH WIND       PRES   REMARKS
NORFOLK        LGT SNOW  29  29 100 NW12      29.81R VSB 3/4 WCI  19
SO SIOUX CITY  MIX PCPN  32  27  81 N13       29.82F WCI  22
TEKAMAH        FRZ RAIN  32  30  92 N18       29.78R WCI  20
COLUMBUS       LGT SNOW  31  29  92 N10       29.79R FOG     WCI  22
ALBION         LGT SNOW  31  30  94 NW13      29.82R WCI  22
OMAHA EPPLEY   LGT RAIN  37  33  85 N21G30    29.70R WCI  26
MILLARD        DRIZZLE   38  34  87 N9G17     29.72R WCI  31
LINCOLN        FLURRIES  36  30  79 NW18      29.75R WCI  26
NEBRASKA CITY  CLOUDY    41  32  71 N16       29.66R
BEATRICE       CLOUDY    39  32  76 N18       29.71R WCI  30
FALLS CITY     CLOUDY    46  32  58 N10G24    29.59R

...NORTHERN KANSAS...

CITY           SKY/WX    TMP DP  RH WIND       PRES   REMARKS
GOODLAND       CLEAR     36  27  69 NW21G30   30.01R WCI  25
HILL CITY      MOCLDY    43  36  76 NW20G38   29.93R
NORTON         CLOUDY    41  36  81 NW22G28   29.90R
PHILLIPSBURG   MOCLDY    43  36  75 NW16      29.87R
SMITH CENTER   CLOUDY    45  39  81 NW26G33   29.83R
BELOIT         PTCLDY    41  34  75 NW8       29.80R
HAYS           PTCLDY    46  37  71 NW25G36   29.87
RUSSELL        MOCLDY    47  40  76 NW22G33   29.82R
CONCORDIA      PTCLDY    39  32  76 NW16      29.77R WCI  30
SALINA         CLEAR     49  34  56 NW12      29.77R
TOPEKA         CLEAR     51  40  65 NW16      29.55R



USA.gov is the U.S. government's official web portal to all federal, state and local government web resources and services.